| time (UTC) | temp F | wind direction | speed MPH | gust MPH | rain 1hr in | rain 24hr in | rain mn in | humidity % | barometer mb |
| 20260903090043 | 62 | 45 | 0.0 | 0.0 | 0.00 | 0.00 | 0.00 | 82 | 996.0 |
| 20260903084531 | 62 | 46 | 0.0 | 0.0 | 0.00 | 0.00 | 0.00 | 81 | 996.0 |
| 20260903083029 | 63 | 46 | 0.0 | 0.0 | 0.00 | 0.00 | 0.00 | 81 | 996.1 |
| 20260903081525 | 63 | 46 | 0.0 | 0.0 | 0.00 | 0.00 | 0.00 | 80 | 996.4 |
| 20260903080024 | 63 | 46 | 0.0 | 0.0 | 0.00 | 0.00 | 0.00 | 80 | 997.0 |
| 20260903074521 | 64 | 46 | 0.0 | 2.0 | 0.00 | 0.00 | 0.00 | 78 | 997.0 |
| 20260903073030 | 65 | 23 | 0.0 | 0.0 | 0.00 | 0.00 | 0.00 | 78 | 996.9 |
| 20260903071525 | 65 | 24 | 0.0 | 1.0 | 0.00 | 0.00 | 0.00 | 77 | 996.9 |
| 20260903070015 | 65 | 121 | 0.0 | 2.0 | 0.00 | 0.00 | 0.00 | 76 | 996.9 |
| 20260903064512 | 66 | 26 | 0.0 | 0.0 | 0.00 | 0.00 | 0.00 | 76 | 996.7 |
| 20260903063012 | 66 | 24 | 0.0 | 0.0 | 0.00 | 0.00 | 0.00 | 75 | 996.7 |
| 20260903061509 | 66 | 27 | 0.0 | 0.0 | 0.00 | 0.00 | 0.00 | 75 | 996.8 |
| 20260903060006 | 66 | 333 | 0.0 | 2.0 | 0.00 | 0.00 | 0.00 | 74 | 997.0 |
| 20260903054505 | 67 | 14 | 0.0 | 2.0 | 0.00 | 0.00 | 0.00 | 72 | 997.0 |
| 20260903053004 | 67 | 65 | 0.0 | 1.0 | 0.00 | 0.00 | 0.00 | 72 | 996.8 |
| 20260903051503 | 67 | 64 | 0.0 | 1.0 | 0.00 | 0.00 | 0.00 | 72 | 996.7 |
| 20260903050002 | 68 | 63 | 0.0 | 3.0 | 0.00 | 0.00 | 0.00 | 71 | 996.5 |
| 20260903044502 | 68 | 80 | 0.0 | 4.0 | 0.00 | 0.00 | 0.00 | 71 | 996.5 |
| 20260903043004 | 68 | 72 | 0.0 | 6.0 | 0.00 | 0.00 | 0.00 | 70 | 996.7 |
| 20260903041502 | 68 | 2 | 1.0 | 6.0 | 0.00 | 0.00 | 0.00 | 70 | 996.8 |
| 20260903040003 | 69 | 124 | 1.0 | 6.0 | 0.00 | 0.00 | 0.00 | 69 | 997.0 |
| 20260903034600 | 69 | 60 | 1.0 | 4.0 | 0.00 | 0.00 | 0.00 | 68 | 996.9 |
| 20260903033059 | 70 | 99 | 0.0 | 3.0 | 0.00 | 0.00 | 0.00 | 67 | 997.0 |
| 20260903031602 | 71 | 63 | 1.0 | 3.0 | 0.00 | 0.00 | 0.00 | 65 | 997.0 |
| 20260903030057 | 71 | 23 | 0.0 | 3.0 | 0.00 | 0.00 | 0.00 | 64 | 996.8 |
| 20260903024604 | 72 | 71 | 0.0 | 4.0 | 0.00 | 0.00 | 0.00 | 62 | 996.7 |
| 20260903023056 | 73 | 358 | 1.0 | 3.0 | 0.00 | 0.00 | 0.00 | 61 | 996.6 |
| 20260903021556 | 74 | 60 | 0.0 | 4.0 | 0.00 | 0.00 | 0.00 | 61 | 996.5 |
| 20260903020055 | 75 | 60 | 0.0 | 3.0 | 0.00 | 0.00 | 0.00 | 59 | 996.6 |
| 20260903014555 | 76 | 115 | 0.0 | 2.0 | 0.00 | 0.00 | 0.00 | 57 | 996.6 |
| 20260903013105 | 76 | 131 | 0.0 | 5.0 | 0.00 | 0.00 | 0.00 | 55 | 996.7 |
| 20260903011552 | 77 | 17 | 0.0 | 2.0 | 0.00 | 0.00 | 0.00 | 54 | 996.6 |
| 20260903010051 | 78 | 23 | 0.0 | 3.0 | 0.00 | 0.00 | 0.00 | 52 | 996.8 |
| 20260903004549 | 77 | 13 | 0.0 | 0.0 | 0.00 | 0.00 | 0.00 | 53 | 996.8 |
| 20260903003050 | 77 | 20 | 0.0 | 0.0 | 0.00 | 0.00 | 0.00 | 54 | 997.1 |
| 20260903001546 | 77 | 26 | 0.0 | 0.0 | 0.00 | 0.00 | 0.00 | 55 | 997.2 |
| 20260903000046 | 78 | 26 | 0.0 | 2.0 | 0.00 | 0.00 | 0.00 | 55 | 997.4 |
| 20260902234552 | 78 | 25 | 0.0 | 1.0 | 0.00 | 0.00 | 0.00 | 55 | 997.6 |
| 20260902233041 | 77 | 27 | 0.0 | 3.0 | 0.00 | 0.00 | 0.00 | 54 | 997.6 |
| 20260902231539 | 77 | 15 | 0.0 | 1.0 | 0.00 | 0.00 | 0.00 | 55 | 997.8 |
| 20260902230034 | 75 | 20 | 0.0 | 1.0 | 0.00 | 0.00 | 0.00 | 55 | 998.0 |
| 20260902224543 | 75 | 356 | 0.0 | 0.0 | 0.00 | 0.00 | 0.00 | 57 | 998.1 |
| 20260902223033 | 76 | 23 | 0.0 | 3.0 | 0.00 | 0.00 | 0.00 | 55 | 998.2 |
| 20260902221530 | 76 | 140 | 0.0 | 1.0 | 0.00 | 0.00 | 0.00 | 57 | 998.1 |
| 20260902220028 | 76 | 61 | 0.0 | 1.0 | 0.00 | 0.00 | 0.00 | 55 | 998.2 |
| 20260902214524 | 77 | 141 | 0.0 | 2.0 | 0.00 | 0.00 | 0.00 | 56 | 998.3 |
| 20260902213020 | 76 | 137 | 0.0 | 3.0 | 0.00 | 0.00 | 0.00 | 54 | 998.6 |
| 20260902211517 | 76 | 56 | 0.0 | 5.0 | 0.00 | 0.00 | 0.00 | 54 | 998.7 |
| 20260902210018 | 76 | 55 | 0.0 | 4.0 | 0.00 | 0.00 | 0.00 | 57 | 998.8 |
| 20260902204516 | 75 | 148 | 0.0 | 3.0 | 0.00 | 0.00 | 0.00 | 60 | 999.0 |
| 20260902203010 | 74 | 120 | 0.0 | 2.0 | 0.00 | 0.00 | 0.00 | 57 | 999.0 |
| 20260902201507 | 74 | 120 | 0.0 | 1.0 | 0.00 | 0.00 | 0.00 | 58 | 999.2 |
| 20260902200005 | 73 | 110 | 0.0 | 1.0 | 0.00 | 0.00 | 0.00 | 59 | 999.3 |
| 20260902194501 | 72 | 135 | 0.0 | 0.0 | 0.00 | 0.00 | 0.00 | 61 | 999.4 |
| 20260902193100 | 72 | 142 | 0.0 | 1.0 | 0.00 | 0.00 | 0.00 | 60 | 999.5 |
| 20260902191559 | 72 | 141 | 0.0 | 0.0 | 0.00 | 0.00 | 0.00 | 60 | 999.4 |
| 20260902190104 | 72 | 136 | 0.0 | 2.0 | 0.00 | 0.00 | 0.00 | 63 | 999.4 |
| 20260902184554 | 72 | 125 | 0.0 | 1.0 | 0.00 | 0.00 | 0.00 | 59 | 999.4 |
| 20260902183057 | 71 | 129 | 0.0 | 2.0 | 0.00 | 0.00 | 0.00 | 60 | 999.5 |
| 20260902181550 | 71 | 82 | 0.0 | 1.0 | 0.00 | 0.00 | 0.00 | 61 | 999.4 |
| 20260902180049 | 70 | 139 | 0.0 | 2.0 | 0.00 | 0.00 | 0.00 | 60 | 999.3 |
| 20260902174546 | 69 | 108 | 0.0 | 3.0 | 0.00 | 0.00 | 0.00 | 64 | 999.3 |
| 20260902173045 | 68 | 136 | 0.0 | 0.0 | 0.00 | 0.00 | 0.00 | 61 | 999.3 |
| 20260902171544 | 69 | 140 | 0.0 | 2.0 | 0.00 | 0.00 | 0.00 | 62 | 999.5 |
| 20260902170043 | 69 | 124 | 0.0 | 1.0 | 0.00 | 0.00 | 0.00 | 61 | 999.5 |
| 20260902164543 | 69 | 122 | 0.0 | 2.0 | 0.00 | 0.00 | 0.00 | 61 | 999.4 |
| 20260902163039 | 68 | 141 | 0.0 | 1.0 | 0.00 | 0.00 | 0.00 | 61 | 999.3 |
| 20260902161544 | 68 | 162 | 0.0 | 4.0 | 0.00 | 0.00 | 0.00 | 63 | 999.4 |
| 20260902160036 | 66 | 131 | 0.0 | 2.0 | 0.00 | 0.00 | 0.00 | 66 | 999.5 |
| 20260902154533 | 66 | 120 | 0.0 | 3.0 | 0.00 | 0.00 | 0.00 | 64 | 999.6 |
| 20260902153030 | 65 | 122 | 0.0 | 3.0 | 0.00 | 0.00 | 0.00 | 66 | 999.3 |
| 20260902151529 | 61 | 146 | 0.0 | 3.0 | 0.00 | 0.00 | 0.00 | 71 | 999.3 |
| 20260902150033 | 60 | 142 | 1.0 | 4.0 | 0.00 | 0.00 | 0.00 | 73 | 999.4 |
| 20260902144528 | 58 | 45 | 0.0 | 5.0 | 0.00 | 0.00 | 0.00 | 77 | 999.4 |
| 20260902143027 | 57 | 46 | 0.0 | 5.0 | 0.00 | 0.00 | 0.00 | 78 | 999.3 |
| 20260902141534 | 56 | 43 | 0.0 | 1.0 | 0.00 | 0.00 | 0.00 | 79 | 999.3 |
| 20260902140026 | 56 | 43 | 0.0 | 1.0 | 0.00 | 0.00 | 0.00 | 79 | 999.4 |
| 20260902134523 | 56 | 42 | 0.0 | 2.0 | 0.00 | 0.00 | 0.00 | 78 | 999.5 |
| 20260902133019 | 56 | 41 | 0.0 | 4.0 | 0.00 | 0.00 | 0.00 | 78 | 998.8 |
| 20260902131522 | 56 | 26 | 0.0 | 2.0 | 0.00 | 0.00 | 0.00 | 78 | 998.9 |
| 20260902130017 | 55 | 130 | 0.0 | 1.0 | 0.00 | 0.00 | 0.00 | 78 | 999.2 |
| 20260902124516 | 56 | 139 | 0.0 | 3.0 | 0.00 | 0.00 | 0.00 | 77 | 999.3 |
| 20260902123014 | 56 | 65 | 0.0 | 1.0 | 0.00 | 0.00 | 0.00 | 77 | 999.0 |
| 20260902121514 | 56 | 65 | 0.0 | 1.0 | 0.00 | 0.00 | 0.00 | 77 | 999.2 |
| 20260902120015 | 56 | 67 | 0.0 | 1.0 | 0.00 | 0.00 | 0.00 | 77 | 999.3 |
| 20260902114521 | 56 | 69 | 0.0 | 1.0 | 0.00 | 0.00 | 0.00 | 76 | 999.4 |
| 20260902113010 | 56 | 68 | 0.0 | 1.0 | 0.00 | 0.00 | 0.00 | 76 | 999.4 |
| 20260902111508 | 56 | 68 | 0.0 | 1.0 | 0.00 | 0.00 | 0.00 | 76 | 999.4 |
| 20260902110012 | 56 | 128 | 0.0 | 1.0 | 0.00 | 0.00 | 0.00 | 75 | 999.5 |
| 20260902104506 | 57 | 13 | 0.0 | 2.0 | 0.00 | 0.00 | 0.00 | 75 | 999.3 |
| 20260902103002 | 57 | 8 | 0.0 | 2.0 | 0.00 | 0.00 | 0.00 | 75 | 999.3 |
| 20260902101501 | 57 | 15 | 0.0 | 2.0 | 0.00 | 0.00 | 0.00 | 75 | 999.3 |
| 20260902100059 | 57 | 8 | 0.0 | 1.0 | 0.00 | 0.00 | 0.00 | 75 | 999.3 |
| 20260902094557 | 58 | 26 | 0.0 | 0.0 | 0.00 | 0.00 | 0.00 | 74 | 999.3 |
| 20260902093054 | 58 | 340 | 0.0 | 1.0 | 0.00 | 0.00 | 0.00 | 73 | 999.5 |
| 20260902091553 | 59 | 149 | 0.0 | 2.0 | 0.00 | 0.00 | 0.00 | 72 | 999.6 |